Location: Unspecified
(59.2496°S, 0.0000°E)
Time: 03:28:49
(UTC+00:00)

Daily predictions for brighter satellites

Satellite Brightness Start Highest point End
(mag) Time Altitude Azimuth Time Altitude Azimuth Time Altitude Azimuth
H-2A R/B 3.9 00:08:47 27° SE 00:08:47 27° SE 00:13:01 10° S
Cosmos 2263 Rocket 3.6 00:10:25 36° S 00:10:25 36° S 00:14:31 10° SE
ADEOS Rocket 3.8 00:09:41 59° SE 00:09:41 59° SE 00:16:28 10° SSW
Okean O Rocket 4.3 00:11:40 10° S 00:13:22 15° SSW 00:13:22 15° SSW
ATLAS 2AS CENTAUR R/B 4.3 00:09:51 10° WSW 00:13:05 25° WSW 00:13:05 25° WSW
Cosmos 2227 Rocket 3.7 00:27:46 31° SSW 00:28:02 31° SSW 00:33:07 10° SE
CENTAUR R/B 4.0 00:36:23 29° E 00:36:23 29° E 00:39:29 10° ESE
ACS3 Solar Sail 2.7 00:37:26 42° SSW 00:37:26 42° SSW 00:41:23 10° SSW
Resurs 1-4 Rocket 3.5 00:56:05 35° S 00:56:05 35° S 00:59:11 10° SSW
Cosmos 1844 Rocket 3.9 00:58:59 40° SSE 00:58:59 40° SSE 01:02:50 10° SE
Cosmos 1943 Rocket 4.0 01:01:48 23° ESE 01:01:48 23° ESE 01:04:33 10° SE
Cosmos 2297 Rocket 4.2 01:03:21 10° SW 01:08:06 26° S 01:12:51 10° SE
ARGOS 4.5 01:09:24 35° SE 01:09:24 35° SE 01:14:17 10° S
CZ-2D R/B 3.4 01:12:16 38° S 01:12:16 38° S 01:15:40 10° SSW
ADEOS II 3.4 01:17:09 37° S 01:17:09 37° S 01:20:24 10° SSW
Lacrosse 4 Rocket 4.2 01:18:05 16° SE 01:18:05 16° SE 01:19:04 10° SE
Cosmos 2082 Rocket 4.2 01:25:08 10° SW 01:26:43 19° SW 01:26:43 19° SW
H-2A R/B 4.5 01:41:56 18° S 01:41:56 18° S 01:43:09 10° S
Cosmos 2278 Rocket 3.3 01:41:59 38° E 01:41:59 38° E 01:46:06 10° SE
H-2A R/B 3.2 01:49:17 41° SSW 01:49:17 41° SSW 01:52:47 10° SSW
CZ-2C R/B 3.4 01:44:16 10° SSE 01:48:12 50° SSE 01:48:12 50° SSE
ALOS 4.4 01:53:11 20° SSW 01:53:11 20° SSW 01:54:35 10° SSW
SeaSat 1 3.6 01:45:32 10° SE 01:48:53 41° SSE 01:48:53 41° SSE
Cosmos 2263 Rocket 4.0 01:52:05 20° SW 01:54:26 26° S 01:59:12 10° SE
ADEOS Rocket 4.0 01:56:37 44° WSW 01:56:37 44° WSW 02:02:07 10° SSW
Cosmos 2034 Rocket 4.4 01:52:14 10° SSW 01:57:04 55° SSW 01:57:04 55° SSW
Cosmos 2279 Rocket 4.2 02:06:15 10° S 02:12:34 68° ESE 02:13:20 62° ENE
Cosmos 2227 Rocket 4.1 02:09:32 12° SW 02:13:43 26° S 02:18:27 10° ESE
CZ-2C R/B 3.3 02:15:23 44° SE 02:15:23 44° SE 02:19:16 10° S
Cosmos 540 Rocket 4.2 02:10:49 10° SSW 02:15:52 50° SE 02:16:58 43° E
ACS3 Solar Sail 3.6 02:21:03 17° SW 02:21:03 17° SW 02:23:12 10° SSW
CENTAUR R/B 2.5 02:23:28 82° W 02:23:45 85° SSW 02:29:49 10° ESE
Meteor 2-2 Rocket 4.4 02:18:54 10° SSW 02:24:39 79° SSW 02:24:39 79° SSW
Meteor 2-6 Rocket 4.3 02:24:32 10° SSW 02:30:10 71° ESE 02:30:15 71° ESE
USA 59 Rocket 3.9 02:24:54 10° NE 02:30:55 19° E 02:37:22 10° ESE
Cosmos 2221 3.8 02:27:39 10° S 02:31:28 40° SE 02:31:28 40° SE
Resurs 1-4 Rocket 4.0 02:37:07 19° SW 02:37:07 19° SW 02:38:50 10° SSW
Cosmos 1763 Rocket 4.0 02:28:56 10° SSW 02:33:05 54° S 02:33:05 54° S
NOSS 3-2 (A) 4.0 02:36:40 61° NNW 02:38:13 77° NE 02:45:31 10° ESE
Tsikada Rocket 3.9 02:37:49 77° NNE 02:38:17 84° E 02:44:34 10° SSE
Cosmos 614 Rocket 4.3 02:39:48 60° S 02:39:48 60° S 02:44:08 10° SSE
PAYLOAD A 4.2 02:40:40 63° ESE 02:40:42 63° ESE 02:45:35 10° SSW
Cosmos 1844 Rocket 4.2 02:40:36 25° SW 02:42:13 28° SSW 02:47:08 10° SE
Cosmos 1943 Rocket 2.1 02:43:18 77° SSW 02:43:18 77° SSW 02:48:40 10° SE
ARGOS 3.7 02:50:53 46° SW 02:50:53 46° SW 02:54:49 10° SSW
CZ-2D R/B 4.0 02:53:31 18° SW 02:53:31 18° SW 02:55:22 10° SSW
Cosmos 1833 4.2 02:45:52 10° SW 02:51:43 84° SE 02:57:34 10° NE
Cosmos 2297 Rocket 3.7 02:48:27 10° SW 02:53:42 35° SSE 02:58:57 10° E
Lacrosse 4 Rocket 3.2 02:53:30 24° SSW 02:53:53 24° S 02:57:18 10° SE
Cosmos 1939 Rocket 4.1 02:54:59 38° SSE 02:54:59 38° SSE 02:57:47 10° S
ADEOS II 3.9 02:57:58 19° SW 02:57:58 19° SW 02:59:49 10° SSW
Cosmos 1656 Rocket 4.2 02:57:52 47° NNE 02:58:51 53° ENE 03:04:26 10° SE
Cosmos 1634 Rocket 4.2 02:56:25 10° SSW 03:02:09 52° WSW 03:02:09 52° WSW
Meteor 1-19 Rocket 4.3 03:01:18 10° SSW 03:07:21 82° ESE 03:11:13 22° NNE
H-2A R/B 4.5 03:04:19 10° SE 03:07:36 24° E 03:09:34 17° NE
USA 281 3.9 03:01:59 10° SE 03:08:25 48° ENE 03:11:58 25° N
Meteor 2-3 Rocket 3.7 03:08:48 62° WSW 03:08:58 63° WSW 03:14:43 10° SSE
Meteor 2-12 Rocket 4.3 03:08:49 64° NW 03:09:38 73° WSW 03:15:52 10° SSE
GP-B 4.3 03:12:02 33° SSW 03:12:02 33° SSW 03:14:47 10° S
H-2A R/B 4.5 03:18:18 11° SSW 03:18:18 11° SSW 03:18:27 10° SSW
FengYun 1-2 T 4.2 03:11:27 17° NNE 03:15:52 88° ESE 03:21:35 10° SSW
Meteor 2-20 4.5 03:10:48 10° SSW 03:17:01 82° ESE 03:23:13 10° NNE
Cosmos 2151 3.8 03:21:46 38° NE 03:22:49 47° E 03:26:53 10° SSE
Cosmos 2369 Rocket 3.2 03:20:17 27° NNE 03:22:53 42° ENE 03:28:16 10° SE
Cosmos 1812 Rocket 3.6 03:18:29 10° SSW 03:23:03 83° ESE 03:23:34 69° NNE
Cosmos 2278 Rocket 2.4 03:23:48 52° W 03:24:42 59° SW 03:30:23 10° SE
SeaSat 1 3.9 03:23:05 10° SSE 03:27:13 27° SSW 03:28:29 24° SW
H-2A R/B 4.0 03:29:47 17° SW 03:29:47 17° SW 03:31:35 10° SW
CZ-2C R/B 3.8 03:24:59 10° S 03:29:25 27° SW 03:29:38 27° SW
Cosmos 1238 Rocket 4.2 03:25:04 10° S 03:29:58 50° ESE 03:34:33 10° NE
Cosmos 1892 Rocket 4.2 03:35:54 41° SW 03:35:54 41° SW 03:39:31 10° S
Meteor 1-27 Rocket 3.8 03:31:29 10° SSW 03:37:07 78° ESE 03:42:45 10° NNE
Cosmos 1626 Rocket 3.5 03:38:46 64° N 03:39:26 89° ENE 03:43:56 10° SSE
Cosmos 2263 Rocket 3.9 03:34:58 10° SW 03:40:01 30° SSE 03:45:03 10° E
IRS-1D 3.8 03:36:07 10° NNE 03:41:26 74° ESE 03:46:52 10° SSW
Cosmos 1023 Rocket 4.5 03:43:58 43° NNW 03:45:39 80° ENE 03:50:52 10° SSE
Cosmos 1743 4.2 03:48:15 20° SSW 03:48:15 20° SSW 03:49:34 10° S
Timation 2 Rocket 4.3 03:47:03 38° WNW 03:49:45 63° SW 03:56:35 10° SE
CZ-2C R/B 3.4 03:54:36 28° SW 03:54:36 28° SW 03:57:20 10° SSW
USA 306 3.6 03:54:51 33° NNE 03:54:51 33° NNE 03:57:35 10° ENE
Cosmos 1269 Rocket 4.0 03:52:56 36° NNW 03:55:13 82° ENE 04:00:37 10° SSE
MOZ.5/SAFIR/RUBIN 5/SL-8 3.7 03:52:21 10° SSE 03:57:07 90° SW 03:59:11 34° NNW
Cosmos 540 Rocket 4.0 03:52:29 10° SW 04:03:03 - N 03:56:21 39° W
SJ 16-02 2.7 03:54:57 13° N 03:58:18 36° ENE 04:02:17 10° SE
Molniya-1 4.3 03:57:08 37° W 03:58:54 68° SSW 04:04:28 10° ESE
Cosmos 2227 Rocket 3.5 03:53:52 10° SW 03:59:14 39° SSE 04:04:35 10° E
Cosmos 921 Rocket 2.8 03:59:42 55° NW 04:00:33 76° WSW 04:04:49 10° SSE
Iridium 4 Rocket 3.3 03:55:48 10° S 04:01:05 75° W 04:04:32 19° N
Cosmos 1805 4.2 03:59:45 17° NNE 04:01:57 40° E 04:05:10 10° SSE
Cosmos 1461 3.0 04:03:36 44° N 04:03:36 44° N 04:06:22 10° NE
Cosmos 841 Rocket 3.5 03:58:02 10° SSW 04:03:21 87° ESE 04:08:35 10° NNE
Meteor 1-20 Rocket 4.2 04:03:07 17° N 04:07:32 85° ENE 04:13:21 10° SSE
Cosmos 1908 4.4 04:07:31 18° ENE 04:08:01 19° E 04:09:40 10° SE
Okean 1-7 Rocket 4.0 04:04:22 14° N 04:08:12 66° E 04:12:45 10° SSE
Cosmos 2221 3.5 04:04:49 10° SSW 04:07:42 31° WSW 04:07:42 31° WSW
H-2A R/B 3.2 04:05:26 13° N 04:08:54 67° WNW 04:12:51 10° SSW
NOSS 3-2 (C) 4.0 04:09:28 28° WNW 04:14:31 87° SSW 04:21:42 10° ESE
CENTAUR R/B 2.8 04:10:33 23° WSW 04:14:47 60° S 04:20:17 10° ESE
Cosmos 1758 Rocket 3.7 04:14:30 40° WNW 04:15:45 54° WSW 04:20:12 10° S
Cosmos 1140 Rocket 3.4 04:13:53 33° NW 04:16:15 74° SW 04:21:30 10° SSE
Cosmos 1076 Rocket 4.4 04:12:42 10° N 04:16:54 49° E 04:21:07 10° SSE
Cosmos 468 Rocket 4.1 04:12:23 10° SW 04:17:22 48° WNW 04:22:19 10° N
USA 59 Rocket 2.8 04:09:17 10° NNW 04:18:07 49° NE 04:27:51 10° SE
Cosmos 2297 3.7 04:21:28 21° NNW 04:25:24 83° NE 04:31:09 10° SE
Cosmos 1953 Rocket 4.4 04:22:25 10° N 04:26:43 52° E 04:31:03 10° SSE
BREEZE-M DEB (TANK) 4.4 04:24:14 21° NNW 04:27:06 39° NNE 04:40:24 10° E
Cosmos 1943 Rocket 3.2 04:24:48 22° WSW 04:27:33 33° SSW 04:32:36 10° SE
Cosmos 1844 Rocket 4.4 04:23:00 10° SW 04:27:46 27° S 04:32:35 10° ESE
SL-14 R/B 4.2 04:24:08 10° S 04:27:53 48° ESE 04:31:35 10° NE
Cosmos 1939 Rocket 4.3 04:29:46 20° SW 04:29:46 20° SW 04:31:27 10° SSW
NOSS 3-2 (A) 4.1 04:24:01 23° W 04:29:31 68° SSW 04:36:19 10° ESE
NOAA 12 4.2 04:24:31 10° N 04:29:38 49° W 04:34:49 10° SSW
Lacrosse 4 Rocket 2.9 04:28:57 10° SW 04:32:41 31° SSE 04:36:21 10° E
BREEZE-M R/B 4.3 04:30:47 23° NW 04:33:17 37° N 04:45:12 10° ENE
Cosmos 371 Rocket 3.5 04:30:57 12° NNW 04:35:23 71° ENE 04:40:16 10° SE
Meteor 1-25 Rocket 4.2 04:32:39 10° NNW 04:38:24 80° WSW 04:44:08 10° SSE
Cosmos 2297 Rocket 2.3 04:32:41 10° SW 04:38:28 85° SE 04:44:12 10° NE
RUBIN 8/PSLV 4.4 04:35:17 10° NNE 04:39:32 78° WNW 04:43:53 10° SSW
IGS 5A 3.2 04:36:49 10° N 04:40:51 76° WNW 04:44:56 10° SSW
H-2A R/B 2.4 04:37:55 10° SSE 04:41:52 60° WSW 04:44:32 20° NW
Cosmos 1238 4.4 04:38:52 10° S 04:42:01 74° ESE 04:45:09 10° NNE
Cosmos 1656 Rocket 4.0 04:39:12 24° WNW 04:42:31 52° SW 04:48:10 10° SE
Cosmos 304 Rocket 3.8 04:38:20 14° NNW 04:42:32 84° ENE 04:47:24 10° SSE
Iridium 45 4.2 04:40:18 10° SSW 04:43:30 56° W 04:46:37 10° N
SL-16 R/B 3.6 04:37:49 10° SSE 04:43:51 47° E 04:49:50 10° N
Cosmos 1602 Rocket 3.9 04:47:22 21° NW 04:49:55 43° WSW 04:54:10 10° S
Cosmos 1825 Rocket 3.5 04:45:59 10° NNW 04:50:22 71° WSW 04:54:50 10° S
BlueWalker 3 3.6 04:49:19 13° NNW 04:51:33 22° NNE 04:54:27 10° ENE
MOS 1 Rocket 3.1 04:47:55 10° NNE 04:52:36 83° WNW 04:57:06 10° SSW
USA 281 3.3 04:46:36 10° SSE 04:53:09 63° SW 04:58:50 14° NW
Meteor 2-4 Rocket 4.1 04:48:24 10° SSW 04:54:10 49° W 04:59:52 10° NNW
Cosmos 2263 4.2 04:50:28 14° NW 04:55:33 81° SW 05:01:27 10° SE
CBERS-1 4.0 04:52:35 10° NNE 04:57:44 88° WNW 05:02:57 10° SSW
Cosmos 1954 Rocket 4.5 04:52:38 10° NNW 04:57:45 63° ENE 05:02:56 10° SE
ARIANE 5 R/B 3.3 04:53:39 10° NE 04:58:46 57° ESE 05:03:51 10° SSW
Cosmos 2151 3.8 04:57:51 21° WNW 04:59:48 30° WSW 05:03:34 10° S
Nadezhda 4 Rocket 4.4 04:55:13 13° NW 05:00:21 43° WSW 05:06:18 10° S
DMSP B5D2-2 4.4 04:55:56 10° SSE 05:01:05 49° WSW 05:06:07 10° NW
JB-3 4.3 04:57:42 10° S 05:01:38 61° WSW 05:05:32 10° NNW
Cosmos 2315 Rocket 4.4 04:56:17 10° S 05:02:35 69° ESE 05:08:49 10° NNE
SeaSat 1 4.4 04:59:55 10° SE 05:03:28 20° S 05:07:02 10° SW
SMAP 3.1 04:59:30 10° NNE 05:04:15 90° W 05:09:03 10° SSW
Cosmos 1238 Rocket 3.9 05:01:17 10° SSW 05:05:48 35° W 05:10:04 10° NNW
Cosmos 2369 Rocket 2.3 05:02:04 15° WNW 05:06:47 61° SW 05:12:31 10° SE
Cosmos 2278 Rocket 3.5 05:05:38 13° WSW 05:09:53 29° SSW 05:14:51 10° SE
CZ-4 R/B 4.4 05:07:38 10° NNW 05:12:02 35° W 05:16:33 10° SSW
SPOT 1/Viking Rocket 4.0 05:07:30 10° NNE 05:12:38 66° ESE 05:17:49 10° SSW
SWARM A 4.2 05:11:25 10° NNW 05:14:44 67° W 05:18:07 10° S
Cosmos 1151 Rocket 3.0 05:11:41 10° SSW 05:16:10 83° WNW 05:20:32 10° N
Cosmos 1842 Rocket 4.1 05:14:06 10° SSW 05:18:20 39° W 05:22:30 10° NNW
Cosmos 1553 Rocket 4.2 05:13:16 10° SSW 05:19:19 49° W 05:25:13 10° NNW
Cosmos 1484 Rocket 2.6 05:17:00 10° N 05:20:24 53° WNW 05:23:54 10° SSW
Cosmos 407 Rocket 3.7 05:15:28 11° NW 05:20:25 53° SW 05:25:36 10° SSE
IRS-1D 4.5 05:16:32 10° NNW 05:21:05 28° W 05:25:42 10° SSW
USA 306 3.4 05:18:54 15° WNW 05:21:22 30° NNW 05:24:06 10° NE
YAOGAN 1 3.8 05:19:38 10° NE 05:23:46 45° ESE 05:27:56 10° S
Cosmos 1092 Rocket 4.2 05:17:52 10° NW 05:23:56 53° WSW 05:30:08 10° S
Cosmos 2263 Rocket 2.7 05:19:12 10° SW 05:24:55 65° SE 05:30:37 10° NE
Cosmos 2266 Rocket 4.2 05:24:46 10° N 05:30:51 78° E 05:37:02 10° SSE
AQUARIUS 4.2 05:28:13 10° NNE 05:32:42 87° W 05:37:15 10° SSW
Cosmos 968 Rocket 4.3 05:28:11 10° N 05:33:22 57° ENE 05:38:33 10° SE
Cosmos 1805 4.0 05:32:59 10° WNW 05:35:50 25° WSW 05:38:44 10° S
SJ 16-02 1.7 05:32:09 10° NW 05:36:20 46° SW 05:40:33 10° SSE
SWAS 4.3 05:32:45 10° NW 05:36:52 86° SW 05:41:00 10° SE
Cosmos 2026 Rocket 4.5 05:31:06 10° NW 05:37:11 42° WSW 05:43:18 10° S
Cosmos 1328 Rocket 4.4 05:33:11 10° S 05:37:36 57° ESE 05:41:55 10° NNE
Cosmos 1908 3.3 05:36:46 13° WNW 05:37:53 18° WSW 05:39:31 10° SSW
Cosmos 1461 4.5 05:37:27 11° W 05:38:31 12° WNW 05:40:00 10° NW
Cosmos 158 Rocket 3.9 05:36:28 10° SW 05:41:22 64° WNW 05:46:14 10° NNE
SJ-6F 4.5 05:38:46 10° NNE 05:42:47 82° ESE 05:46:50 10° SSW
Cosmos 1975 3.6 05:40:06 10° N 05:43:45 53° E 05:47:28 10° SSE
Cosmos 2227 Rocket 2.2 05:38:03 10° SW 05:43:48 80° NW 05:49:30 10° NNE
Cosmos 1536 2.6 05:41:03 10° NNW 05:44:46 67° WSW 05:48:34 10° S
COSMOS 2455 4.1 05:40:47 10° NNW 05:46:27 44° ENE 05:52:10 10° SE
Cosmos 332 Rocket 3.9 05:43:02 10° NNW 05:47:51 84° ENE 05:52:42 10° SSE
USA 238 DEB 3.9 05:42:49 10° WNW 05:50:38 81° SSW 05:57:38 10° ESE
USA 238 3.9 05:42:59 10° WNW 05:50:48 81° SSW 05:57:48 10° ESE
Cosmos 1656 4.2 05:47:01 10° NNW 05:52:40 69° ENE 05:58:25 10° SE
Thor Agena Rocket 3.6 05:47:43 10° N 05:52:46 59° WNW 05:57:56 10° SSW
Cosmos 1814 Rocket 4.1 05:48:19 10° SW 05:53:36 58° WNW 05:58:47 10° N
Meteor 1-13 Rocket 4.4 05:47:33 10° SSW 05:53:38 87° WNW 05:59:35 10° NNE
Radarsat Rocket 4.3 05:47:41 10° NE 05:53:51 73° ESE 05:59:45 10° SSW
Cosmos 1076 Rocket 4.4 05:50:33 10° NW 05:54:26 31° WSW 05:58:19 10° S
Cosmos 2251 Rocket 3.8 05:51:57 10° NW 05:57:15 54° SW 06:02:34 10° SSE
